Simultaneous Nadir Overpasses (SNOs) Predictions

Prediction of SNOs between TERRA and METOP-C Satellite Orbit:

Table of predicted SNOs for the next 14.0 days since TLE Epoch: 12/4/2021
Index Date (TERRA) Time (TERRA) Lat,Lon (TERRA) SZA (TERRA ) Date (METOP-C) Time (METOP-C) Lat,Lon (METOP-C) SZA (METOP-C ) Distance(km) Time Diff (sec)
1 12/06/2021 11:44:04 -81.23,-132.34 73.73 12/06/2021 11:43:52 -81.22,-132.32 73.73 0.69 12
2 12/06/2021 12:33:30 81.23, 35.40 106.30 12/06/2021 12:34:32 81.23, 35.51 106.34 1.86 62
3 12/09/2021 06:28:49 81.20, 126.04 106.48 12/09/2021 06:27:36 81.21, 126.18 106.46 2.42 73
4 12/09/2021 07:18:15 -81.22, -66.04 73.48 12/09/2021 07:18:15 -81.22, -66.02 73.48 0.20 0
5 12/09/2021 08:07:23 81.58, 108.64 107.53 12/09/2021 08:08:36 81.33, 109.28 107.48 29.38 73
6 12/12/2021 02:02:58 81.21,-167.37 106.70 12/12/2021 02:01:58 81.20,-167.53 106.65 2.67 60
7 12/12/2021 02:52:24 -81.23, 0.57 73.26 12/12/2021 02:52:36 -81.22, 0.63 73.25 1.13 12
8 12/14/2021 21:37:08 81.21,-100.85 106.85 12/14/2021 21:36:20 81.21,-100.88 106.83 0.70 48
9 12/14/2021 22:26:35 -81.21, 66.75 73.16 12/14/2021 22:26:59 -81.22, 66.88 73.13 2.38 24
10 12/17/2021 17:11:18 81.22, -34.39 106.93 12/17/2021 17:10:42 81.21, -34.27 106.93 2.15 36



Historial Predications of SNOs between TERRA and METOP-C
